FW9009 Weather Reports


time (UTC)temp
C
wind
direction
speed
KPH
gust
KPH
rain 1hr
cm
rain 24hr
cm
rain mn
cm
humidity
%
barometer
mb
20260506231710 19 100 0.0 0.0 0.00 0.18 0.18 84 1007.2
20260506231209 19 73 0.0 0.0 0.00 0.18 0.18 84 1006.8
20260506230704 19 57 0.0 0.0 0.00 0.18 0.18 83 1006.7
20260506230202 19 57 0.0 0.0 0.00 0.18 0.18 84 1006.8
20260506225658 19 55 0.0 0.0 0.00 0.18 0.18 84 1006.7
20260506225155 19 68 0.0 0.0 0.00 0.18 0.18 84 1006.8
20260506224651 19 62 0.0 1.6 0.00 0.18 0.18 84 1006.8
20260506224148 19 85 0.0 0.0 0.00 0.18 0.18 84 1006.8
20260506223645 19 72 0.0 0.0 0.00 0.18 0.18 83 1006.6
20260506223140 20 131 1.6 1.6 0.00 0.18 0.18 83 1006.8
20260506222638 20 47 0.0 1.6 0.00 0.18 0.18 82 1006.8
20260506222133 20 81 0.0 0.0 0.00 0.18 0.18 82 1007.0
20260506221632 20 95 0.0 1.6 0.00 0.18 0.18 81 1006.9
20260506221130 20 95 0.0 0.0 0.00 0.18 0.18 81 1006.9
20260506220626 20 87 0.0 1.6 0.00 0.18 0.18 82 1006.8
20260506220121 20 91 0.0 0.0 0.00 0.18 0.18 82 1006.3
20260506215618 20 111 0.0 1.6 0.00 0.18 0.18 81 1006.6
20260506215113 20 133 3.2 3.2 0.00 0.18 0.18 81 1006.6
20260506214611 20 127 0.0 1.6 0.00 0.18 0.18 80 1006.7
20260506214108 20 134 1.6 1.6 0.00 0.18 0.18 80 1006.6
20260506213606 20 102 0.0 1.6 0.00 0.18 0.18 81 1006.6
20260506213103 20 79 0.0 0.0 0.00 0.18 0.18 82 1006.5
20260506212600 20 100 0.0 0.0 0.00 0.18 0.18 83 1006.0
20260506212054 20 69 0.0 0.0 0.00 0.18 0.18 82 1006.4
20260506211551 20 88 0.0 1.6 0.00 0.18 0.18 82 1006.5
20260506211048 20 102 0.0 1.6 0.00 0.18 0.18 81 1006.5
20260506210544 20 128 0.0 1.6 0.00 0.18 0.18 82 1006.4
20260506210041 20 143 3.2 3.2 0.00 0.18 0.18 81 1006.3
20260506205538 21 118 0.0 1.6 0.00 0.18 0.18 80 1006.2
20260506205033 20 116 1.6 1.6 0.00 0.18 0.18 81 1006.4
20260506204531 20 128 1.6 1.6 0.00 0.18 0.18 83 1006.4
20260506204028 20 98 0.0 0.0 0.00 0.18 0.18 83 1006.6
20260506203527 19 96 0.0 0.0 0.00 0.18 0.18 84 1006.5
20260506203022 19 81 0.0 0.0 0.00 0.18 0.18 85 1006.6
20260506202520 19 24 0.0 1.6 0.00 0.18 0.18 85 1006.4
20260506202016 18 218 1.6 3.2 0.00 0.18 0.18 85 1006.3
20260506201514 19 122 1.6 3.2 0.00 0.18 0.18 84 1006.4
20260506201010 19 122 0.0 1.6 0.00 0.18 0.18 85 1006.2
20260506200506 19 99 0.0 0.0 0.00 0.18 0.18 85 1006.1
20260506200004 19 42 1.6 1.6 0.00 0.18 0.18 85 1006.5
20260506195501 19 101 0.0 0.0 0.00 0.18 0.18 84 1006.4
20260506194956 18 76 0.0 0.0 0.00 0.18 0.18 86 1006.4
20260506194454 18 123 1.6 1.6 0.00 0.18 0.18 86 1006.5
20260506193950 18 73 0.0 1.6 0.00 0.18 0.18 87 1006.5
20260506193448 18 60 3.2 4.8 0.00 0.18 0.18 87 1006.6
20260506192944 18 115 1.6 1.6 0.00 0.18 0.18 88 1006.8
20260506192442 18 102 0.0 1.6 0.00 0.18 0.18 88 1006.8
20260506191938 17 84 0.0 0.0 0.00 0.18 0.18 89 1006.6
20260506191435 17 88 1.6 1.6 0.00 0.18 0.18 90 1006.8
20260506190931 17 192 3.2 3.2 0.00 0.18 0.18 90 1007.0
20260506190428 17 104 1.6 3.2 0.00 0.18 0.18 90 1006.7
20260506185925 17 62 0.0 0.0 0.00 0.18 0.18 91 1006.9
20260506185422 17 25 1.6 1.6 0.00 0.18 0.18 91 1007.2
20260506184919 17 260 8.0 8.0 0.00 0.18 0.18 91 1007.0
20260506184416 17 89 1.6 1.6 0.00 0.18 0.18 91 1007.2
20260506183913 17 81 0.0 0.0 0.00 0.18 0.18 91 1007.2
20260506183408 17 39 0.0 1.6 0.00 0.18 0.18 91 1007.0
20260506182906 17 78 0.0 0.0 0.00 0.18 0.18 91 1007.2
20260506182403 17 97 1.6 1.6 0.00 0.18 0.18 92 1007.1
20260506181900 16 92 0.0 0.0 0.00 0.18 0.18 92 1007.3
20260506181358 16 82 0.0 0.0 0.00 0.18 0.18 93 1007.1
20260506180855 16 92 0.0 0.0 0.00 0.18 0.18 94 1007.3
20260506180351 16 143 1.6 3.2 0.00 0.18 0.18 94 1007.3
20260506175848 16 79 0.0 1.6 0.00 0.18 0.18 95 1007.3
20260506175344 16 67 0.0 0.0 0.00 0.18 0.18 95 1007.4
20260506174841 16 60 0.0 1.6 0.00 0.18 0.18 95 1007.3
20260506174339 16 261 0.0 1.6 0.00 0.18 0.18 95 1007.6
20260506173837 16 67 0.0 0.0 0.00 0.18 0.18 95 1007.5
20260506173333 16 89 3.2 3.2 0.00 0.18 0.18 95 1007.7
20260506172830 16 111 0.0 1.6 0.00 0.18 0.18 95 1007.5
20260506172327 16 86 3.2 8.0 0.00 0.18 0.18 95 1007.5
20260506171824 16 75 0.0 0.0 0.00 0.18 0.18 95 1007.7
20260506171321 16 85 0.0 1.6 0.00 0.18 0.18 95 1007.5
20260506170819 16 153 1.6 3.2 0.00 0.18 0.18 96 1007.4
20260506170315 16 77 0.0 0.0 0.00 0.18 0.18 96 1007.6
20260506165814 16 73 0.0 1.6 0.00 0.18 0.18 96 1007.6
20260506165311 16 62 1.6 1.6 0.00 0.18 0.18 96 1007.5
20260506164807 16 103 0.0 1.6 0.00 0.18 0.18 95 1007.5
20260506164304 16 77 3.2 3.2 0.00 0.18 0.18 96 1007.9
20260506163801 16 160 4.8 8.0 0.00 0.18 0.18 96 1007.7
20260506163256 16 83 0.0 1.6 0.00 0.18 0.18 96 1007.8
20260506162752 16 123 3.2 3.2 0.00 0.18 0.18 96 1008.1
20260506162250 16 123 0.0 1.6 0.00 0.18 0.18 96 1007.9
20260506161747 16 127 1.6 3.2 0.13 0.18 0.18 96 1007.8
20260506161244 16 168 3.2 3.2 0.13 0.18 0.18 96 1007.9
20260506160742 16 110 0.0 1.6 0.18 0.15 0.15 96 1007.9
20260506160238 16 74 0.0 0.0 0.18 0.15 0.15 96 1007.8
20260506155737 16 144 3.2 3.2 0.13 0.13 0.13 95 1008.3
20260506155233 16 148 0.0 1.6 0.13 0.13 0.13 94 1008.4
20260506153341 16 86 0.0 0.0 0.00 0.08 0.08 95 1009.0
20260506152837 16 93 3.2 3.2 0.00 0.08 0.08 95 1009.0
20260506152335 16 71 0.0 1.6 0.00 0.08 0.08 95 1009.0
20260506151833 16 88 0.0 0.0 0.13 0.08 0.08 94 1008.8
20260506151329 16 86 0.0 1.6 0.13 0.08 0.08 93 1008.9
20260506150827 16 73 0.0 0.0 0.13 0.08 0.08 92 1008.7
20260506150324 16 67 1.6 1.6 0.18 0.05 0.05 91 1008.6
20260506145820 16 2 4.8 8.0 0.18 0.05 0.05 91 1008.6
20260506145317 16 128 1.6 3.2 0.00 0.03 0.03 91 1008.9
20260506144815 16 106 1.6 1.6 0.18 0.03 0.03 90 1008.6
20260506144311 17 80 0.0 0.0 0.18 0.03 0.03 88 1008.5
20260506143809 17 101 0.0 1.6 0.00 0.00 0.00 86 1008.8
20260506143306 17 101 1.6 1.6 0.00 0.00 0.00 86 1008.9
20260506142804 17 70 0.0 1.6 0.00 0.00 0.00 85 1008.8
20260506142305 17 96 0.0 1.6 0.00 0.00 0.00 85 1008.6
20260506141800 17 84 0.0 0.0 0.00 0.00 0.00 84 1008.6
20260506141258 17 140 6.4 8.0 0.00 0.00 0.00 82 1008.8
20260506140755 18 83 0.0 1.6 0.00 0.00 0.00 80 1008.8
20260506140252 18 44 3.2 3.2 0.00 0.00 0.00 78 1008.6
20260506135749 18 135 3.2 4.8 0.00 0.00 0.00 76 1008.8
20260506135245 18 43 3.2 3.2 0.00 0.00 0.00 76 1008.8
20260506134742 18 74 0.0 0.0 0.00 0.00 0.00 75 1008.4
20260506134238 19 108 1.6 1.6 0.00 0.00 0.00 74 1008.6
20260506133736 19 82 0.0 1.6 0.00 0.00 0.00 76 1008.6
20260506133232 18 77 0.0 1.6 0.00 0.00 0.00 76 1008.4
20260506132729 18 124 1.6 4.8 0.00 0.00 0.00 75 1008.6
20260506132226 18 85 0.0 0.0 0.00 0.00 0.00 77 1008.5
20260506131724 18 59 3.2 4.8 0.00 0.00 0.00 76 1008.5
20260506131220 18 116 4.8 8.0 0.00 0.00 0.00 76 1008.5
20260506130717 18 29 1.6 3.2 0.00 0.00 0.00 76 1008.5
20260506130214 18 169 3.2 4.8 0.00 0.00 0.00 77 1008.6
20260506125712 18 112 1.6 1.6 0.00 0.00 0.00 76 1008.7
20260506125210 18 338 1.6 3.2 0.00 0.00 0.00 77 1008.4
20260506124708 18 158 3.2 3.2 0.00 0.00 0.00 76 1008.6
20260506124206 18 57 3.2 3.2 0.00 0.00 0.00 76 1008.9
20260506123702 18 114 4.8 11.3 0.00 0.00 0.00 76 1008.7
20260506123201 18 103 1.6 1.6 0.00 0.00 0.00 76 1008.9
20260506122658 18 124 1.6 1.6 0.00 0.00 0.00 76 1008.8
20260506122155 19 109 0.0 1.6 0.00 0.00 0.00 75 1008.6
20260506121653 19 72 0.0 0.0 0.00 0.00 0.00 76 1008.6
20260506121149 18 86 1.6 3.2 0.00 0.00 0.00 76 1008.5
20260506120647 18 125 4.8 4.8 0.00 0.00 0.00 76 1008.7
20260506120144 18 98 1.6 1.6 0.00 0.00 0.00 77 1008.6
20260506115642 18 140 3.2 3.2 0.00 0.00 0.00 76 1008.4
20260506115140 18 105 1.6 3.2 0.00 0.00 0.00 76 1008.6
20260506114637 18 99 1.6 3.2 0.00 0.00 0.00 76 1008.2
20260506114135 18 108 1.6 3.2 0.00 0.00 0.00 76 1008.2
20260506113634 18 101 1.6 1.6 0.00 0.00 0.00 77 1008.5
20260506113130 18 188 6.4 11.3 0.00 0.00 0.00 77 1008.4
20260506112626 18 108 1.6 3.2 0.00 0.00 0.00 78 1008.1
20260506112124 18 55 0.0 3.2 0.00 0.00 0.00 78 1008.3
20260506111622 18 77 0.0 0.0 0.00 0.00 0.00 78 1008.2
20260506111119 18 121 6.4 8.0 0.00 0.00 0.00 78 1008.3
20260506110616 18 77 0.0 1.6 0.00 0.00 0.00 78 1008.0
20260506110114 18 102 0.0 0.0 0.00 0.00 0.00 78 1008.0
20260506105610 18 119 1.6 1.6 0.00 0.00 0.00 78 1008.2
20260506105107 18 115 1.6 1.6 0.00 0.00 0.00 78 1008.4
20260506104605 18 105 1.6 1.6 0.00 0.00 0.00 78 1008.1
20260506104102 18 103 0.0 1.6 0.00 0.00 0.00 78 1008.3
20260506103600 17 123 1.6 3.2 0.00 0.00 0.00 79 1008.1
20260506103056 17 78 0.0 0.0 0.00 0.00 0.00 79 1008.1
20260506102555 18 125 1.6 3.2 0.00 0.00 0.00 78 1008.2
20260506102052 17 103 1.6 3.2 0.00 0.00 0.00 79 1008.2
20260506101548 17 143 0.0 1.6 0.00 0.00 0.00 79 1008.2
20260506101045 18 117 3.2 3.2 0.00 0.00 0.00 78 1008.1
20260506100544 18 103 0.0 1.6 0.00 0.00 0.00 78 1008.1
20260506100041 17 114 1.6 1.6 0.00 0.00 0.00 78 1008.1
20260506095540 18 88 1.6 1.6 0.00 0.00 0.00 78 1007.8
20260506095036 18 114 1.6 1.6 0.00 0.00 0.00 78 1008.0
20260506094534 17 101 1.6 1.6 0.00 0.00 0.00 78 1008.1
20260506094032 18 80 1.6 3.2 0.00 0.00 0.00 78 1008.4
20260506093530 18 121 1.6 1.6 0.00 0.00 0.00 77 1008.0
20260506093027 18 140 0.0 3.2 0.00 0.00 0.00 78 1008.1
20260506092525 18 115 1.6 3.2 0.00 0.00 0.00 77 1008.1
20260506092021 18 99 1.6 1.6 0.00 0.00 0.00 77 1008.3
20260506091520 18 143 1.6 3.2 0.00 0.00 0.00 77 1008.3
20260506091016 18 120 1.6 3.2 0.00 0.00 0.00 77 1008.2
20260506090514 18 92 0.0 0.0 0.00 0.00 0.00 76 1008.2
20260506090010 18 139 3.2 3.2 0.00 0.00 0.00 76 1008.2
20260506085507 18 77 0.0 0.0 0.00 0.00 0.00 76 1008.4
20260506085004 19 100 0.0 0.0 0.00 0.00 0.00 74 1008.3
20260506084501 19 86 0.0 0.0 0.00 0.00 0.00 74 1008.3
20260506083956 19 100 0.0 0.0 0.00 0.00 0.00 74 1008.5
20260506083454 19 109 1.6 1.6 0.00 0.00 0.00 74 1008.3
20260506082951 19 105 3.2 8.0 0.00 0.00 0.00 74 1008.0
20260506082448 19 200 4.8 8.0 0.00 0.00 0.00 75 1008.0
20260506081943 18 149 3.2 4.8 0.00 0.00 0.00 75 1008.3
20260506081442 18 110 1.6 1.6 0.00 0.00 0.00 76 1008.3
20260506080939 18 128 1.6 3.2 0.00 0.00 0.00 78 1008.3
20260506080436 18 73 0.0 0.0 0.00 0.00 0.00 78 1008.2
20260506073420 17 121 1.6 3.2 0.00 0.00 0.00 80 1008.5
20260506072917 17 84 0.0 0.0 0.00 0.00 0.00 79 1008.5
20260506072414 18 111 0.0 1.6 0.00 0.00 0.00 78 1008.5
20260506071912 18 108 0.0 1.6 0.00 0.00 0.00 78 1008.6
20260506071410 18 98 0.0 0.0 0.00 0.00 0.00 78 1008.7
20260506070906 18 84 0.0 0.0 0.00 0.00 0.00 78 1008.4
20260506070403 18 78 0.0 0.0 0.00 0.00 0.00 77 1008.6
20260506062341 18 106 0.0 0.0 0.00 0.00 0.00 75 1008.7
20260506061836 19 107 1.6 1.6 0.00 0.00 0.00 73 1009.0
20260506061333 18 127 1.6 3.2 0.00 0.00 0.00 74 1008.8
20260506060832 19 76 0.0 0.0 0.00 0.00 0.00 74 1008.8
20260506060329 19 145 1.6 3.2 0.00 0.00 0.00 73 1009.0
20260506051301 19 181 4.8 4.8 0.00 0.00 0.00 68 1009.1
20260506050759 19 93 0.0 0.0 0.00 0.00 0.00 68 1009.5
20260506050256 19 93 0.0 0.0 0.00 0.00 0.00 68 1009.4
20260506044747 18 96 0.0 0.0 0.00 0.00 0.00 69 1009.5
20260506044244 18 115 1.6 1.6 0.00 0.00 0.00 69 1009.4
20260506043741 18 70 0.0 0.0 0.00 0.00 0.00 69 1009.4
20260506043238 18 93 0.0 0.0 0.00 0.00 0.00 69 1009.5
20260506042737 18 104 0.0 0.0 0.00 0.00 0.00 69 1009.4
20260506042235 18 75 0.0 0.0 0.00 0.00 0.00 68 1009.5
20260506041733 18 98 0.0 0.0 0.00 0.00 0.00 68 1009.5
20260506041230 18 91 0.0 0.0 0.00 0.00 0.00 69 1009.4
20260506040728 18 92 0.0 0.0 0.00 0.00 0.00 68 1009.3
20260506040225 18 67 0.0 0.0 0.00 0.00 0.00 68 1009.5
20260506035721 19 74 0.0 0.0 0.00 0.03 0.03 68 1009.4
20260506035218 18 113 0.0 0.0 0.00 0.03 0.03 68 1009.4
20260506034715 18 77 0.0 0.0 0.00 0.03 0.03 67 1009.4
20260506034212 18 102 0.0 1.6 0.00 0.03 0.03 67 1009.4
20260506033710 18 67 0.0 0.0 0.00 0.03 0.03 67 1009.0
20260506033206 19 73 0.0 0.0 0.00 0.03 0.03 67 1009.3
20260506032703 19 71 0.0 1.6 0.00 0.03 0.03 66 1009.2
20260506032200 19 95 0.0 0.0 0.00 0.03 0.03 66 1009.3
20260506031657 19 74 0.0 0.0 0.00 0.03 0.03 66 1009.0
20260506031154 20 74 0.0 0.0 0.00 0.03 0.03 65 1009.2
20260506030653 20 86 0.0 0.0 0.00 0.03 0.03 63 1009.2
20260506030149 20 96 0.0 0.0 0.00 0.03 0.03 63 1009.3
20260506025646 20 116 1.6 1.6 0.00 0.03 0.03 64 1009.5
20260506025142 20 122 0.0 0.0 0.00 0.03 0.03 63 1009.2
20260506024640 20 73 1.6 1.6 0.00 0.03 0.03 64 1009.4
20260506024136 20 75 0.0 1.6 0.00 0.03 0.03 63 1009.4
20260506023633 20 116 0.0 1.6 0.00 0.03 0.03 62 1009.6
20260506023130 20 89 0.0 0.0 0.00 0.03 0.03 61 1009.6
20260506022627 20 104 0.0 0.0 0.00 0.03 0.03 62 1009.3
20260506022124 20 112 0.0 0.0 0.00 0.03 0.03 61 1009.4
20260506021622 21 98 0.0 0.0 0.00 0.03 0.03 59 1009.3
20260506021119 20 125 1.6 1.6 0.00 0.03 0.03 60 1009.4
20260506020616 21 87 0.0 0.0 0.00 0.03 0.03 59 1009.4
20260506020114 21 79 0.0 0.0 0.00 0.03 0.03 59 1009.2
20260506015611 20 90 0.0 0.0 0.00 0.03 0.03 60 1008.9
20260506015108 21 97 0.0 0.0 0.00 0.03 0.03 58 1009.2
20260506014606 21 91 0.0 0.0 0.00 0.03 0.03 57 1009.0
20260506014101 21 94 1.6 1.6 0.00 0.03 0.03 56 1009.0
20260506013559 21 82 0.0 0.0 0.00 0.03 0.03 56 1009.1
20260506013056 21 93 0.0 0.0 0.00 0.03 0.03 55 1009.1
20260506012552 22 112 0.0 1.6 0.00 0.03 0.03 54 1008.9
20260506012049 22 132 3.2 3.2 0.00 0.03 0.03 53 1008.8
20260506011547 22 88 0.0 0.0 0.00 0.03 0.03 55 1008.9
20260506011042 22 71 0.0 0.0 0.00 0.03 0.03 55 1008.7
20260506010537 22 85 0.0 0.0 0.00 0.03 0.03 55 1008.8
20260506010033 22 106 0.0 1.6 0.00 0.03 0.03 52 1008.5
20260506005530 22 110 0.0 1.6 0.00 0.03 0.03 51 1008.6
20260506005025 22 159 1.6 3.2 0.00 0.03 0.03 51 1008.7
20260506004523 22 81 0.0 0.0 0.00 0.03 0.03 52 1008.5
20260506004020 22 131 3.2 3.2 0.00 0.03 0.03 50 1008.5
20260506003516 23 128 1.6 3.2 0.00 0.03 0.03 49 1008.5
20260506003012 23 151 4.8 4.8 0.00 0.03 0.03 48 1008.4
20260506002508 23 113 0.0 1.6 0.00 0.03 0.03 49 1008.5
20260506002004 23 99 1.6 1.6 0.00 0.03 0.03 48 1008.3
20260506001501 23 167 3.2 4.8 0.00 0.03 0.03 48 1008.3
20260506000958 23 95 1.6 1.6 0.00 0.03 0.03 47 1008.0
20260506000455 23 144 1.6 3.2 0.00 0.03 0.03 47 1008.2
20260505235952 23 139 4.8 8.0 0.00 0.03 0.03 46 1007.9
20260505235451 24 104 0.0 1.6 0.00 0.03 0.03 46 1007.9
20260505234947 24 130 1.6 3.2 0.00 0.03 0.03 46 1007.8
20260505234444 25 121 1.6 1.6 0.00 0.03 0.03 43 1008.0
20260505233941 25 145 3.2 3.2 0.00 0.03 0.03 42 1007.8
20260505233439 24 118 1.6 1.6 0.00 0.03 0.03 44 1007.8
20260505232936 24 69 0.0 0.0 0.00 0.03 0.03 44 1007.8
20260505232434 24 72 0.0 0.0 0.00 0.03 0.03 45 1008.0